Lid_Strength_Index
3 2 2 1 1 1 1 3 2 2 1 2 3 1 1 1 1 1 1 1 2 2 1 2 2 1 2 1 1 2 2 2 4 3 3 4 3 4 3 4 3 4 5
4 3 3 2 1 1 1 1 2 3 1 1 3 2 1 1 1 2 2 2 2 2 2 2 2 1 2 2 2 2 2 2 3 5 5 4 4 4 3 3 4 4 5
5 4 3 3 2 2 2 1 2 2 1 1 2 2 2 2 2 1 1 2 2 2 2 2 2 2 2 2 2 2 2 3 3 5 5 5 4 4 3 3 4 5 5
6 5 3 3 3 1 1 1 1 2 2 2 2 2 2 2 3 1 1 2 2 2 1 1 1 2 2 2 2 2 3 4 5 5 5 5 5 3 4 5 5 6 7
6 6 5 3 2 2 1 1 1 1 1 1 2 2 2 2 2 3 2 2 2 2 1 1 1 2 3 2 2 2 3 4 4 5 5 5 5 5 5 5 5 6 7
7 6 5 4 3 2 1 2 1 2 2 2 2 2 2 2 6 7 6 5 2 2 2 2 1 4 5 6 6 5 3 3 4 5 5 6 6 6 5 5 4 7 8
7 6 5 4 3 2 2 2 2 2 2 2 2 2 3 2 8 8 6 4 4 2 2 2 2 1 3 3 7 7 6 7 5 4 5 6 6 6 5 5 5 5 6
8 7 6 5 4 3 2 2 2 2 2 2 2 2 2 2 9 10 7 3 2 1 1 1 2 3 3 5 5 5 7 6 5 5 5 5 5 4 4 4 5 4 4
8 8 6 6 5 4 3 3 2 2 2 2 2 2 2 2 9 9 7 2 2 2 1 1 2 3 11 10 6 7 8 8 9 9 9 10 9 8 5 4 4 5 6
8 8 7 6 6 5 3 3 3 2 3 2 2 2 3 2 8 10 8 4 3 2 2 3 8 6 12 11 6 8 9 8 8 8 8 10 8 6 6 4 4 5 5
8 7 7 7 6 5 3 3 3 2 3 3 2 3 3 3 4 8 8 5 2 3 4 4 5 12 13 12 9 7 8 8 8 6 7 6 5 5 4 3 2 3 4
8 7 8 7 6 5 3 2 3 2 3 3 3 3 2 4 7 10 10 8 6 3 3 4 7 13 13 13 9 13 12 9 7 7 7 7 6 6 4 2 4 4 2
8 8 7 4 5 4 4 4 3 3 3 3 3 4 4 3 4 9 9 10 9 3 2 6 13 14 14 12 13 13 11 8 8 8 8 7 6 5 3 5 5 5 4
9 8 7 6 3 3 2 2 3 3 3 3 4 4 3 4 5 5 6 7 9 8 10 9 11 11 10 11 11 10 7 7 7 7 7 6 5 4 5 5 6 7 6
9 8 7 6 5 3 5 6 4 8 7 4 4 5 3 4 3 7 6 5 5 9 9 9 8 8 10 9 8 8 6 6 6 6 6 5 5 5 5 5 7 7 7
9 10 9 7 6 5 4 3 11 10 12 12 12 11 4 8 11 11 12 13 13 12 9 9 9 8 8 8 8 8 7 7 6 6 5 6 6 6 6 7 8 8 7
9 9 8 8 7 7 6 6 6 6 11 11 11 12 13 10 12 12 13 12 13 11 8 9 9 8 8 8 7 8 8 7 5 6 6 7 6 6 7 8 8 7 7
8 10 8 8 7 7 7 7 7 7 6 6 10 12 13 14 13 13 13 10 7 7 7 8 8 7 8 8 8 8 7 7 7 7 7 7 6 6 7 8 8 8 7
8 9 9 8 8 8 8 8 9 8 8 8 7 8 11 13 14 13 12 6 6 6 6 7 7 7 6 6 6 7 7 7 7 8 8 8 7 7 7 7 8 11 9
8 10 9 9 9 9 9 9 9 10 10 9 9 9 8 8 9 10 7 7 6 6 6 6 7 6 7 7 6 6 6 7 8 8 8 8 8 7 7 7 8 9 7
9 9 12 10 10 10 11 11 10 10 11 10 10 11 15 8 9 8 8 8 7 6 6 6 6 7 7 7 6 6 6 6 9 8 8 8 8 7 7 8 8 8 9
10 10 11 12 12 13 13 12 12 12 12 12 11 10 13 10 9 9 9 8 7 7 6 6 6 6 5 5 6 6 6 8 9 9 8 8 8 9 9 9 9 10 11
10 10 11 11 12 13 13 13 14 14 14 14 13 12 11 11 10 10 10 9 9 8 7 6 7 7 6 6 6 6 7 7 8 8 9 9 9 9 10 10 9 11 10
10 10 10 11 11 12 13 13 14 15 14 15 15 15 13 12 11 10 10 9 9 8 8 8 8 7 7 7 7 7 7 6 7 8 8 9 10 11 10 10 10 10 10
8 9 10 11 11 12 12 13 13 14 14 14 14 14 14 14 13 12 11 10 10 10 10 9 9 8 8 7 8 9 13 12 8 11 8 9 9 9 10 10 10 10 10
6 7 8 9 10 11 11 12 12 13 14 14 14 14 13 13 12 12 11 11 11 11 10 10 11 10 11 11 12 13 14 14 11 13 9 9 10 11 10 10 10 11 11